SV1TGC Weather Reports


Display with metric or nautical units.
time (UTC)temp
F
wind
direction
speed
MPH
gust
MPH
rain 1hr
in
rain 24hr
in
rain mn
in
humidity
%
barometer
mb
20260508053538 65 0 0.0 2.0 0.00 0.00 0.00 63 1018.3
20260508053048 64 0 0.0 2.0 0.00 0.00 0.00 62 1018.2
20260508052535 64 0 0.0 2.0 0.00 0.00 0.00 62 1018.0
20260508052036 64 0 0.0 0.0 0.00 0.00 0.00 61 1017.8
20260508051551 64 0 0.0 0.0 0.00 0.00 0.00 61 1017.7
20260508051034 64 0 0.0 3.0 0.00 0.00 0.00 59 1017.6
20260508050534 64 0 0.0 3.0 0.00 0.00 0.00 58 1017.7
20260508050051 63 0 2.0 3.0 0.00 0.00 0.00 58 1017.6
20260508045533 63 344 1.0 3.0 0.00 0.00 0.00 59 1017.8
20260508045033 63 355 1.0 3.0 0.00 0.00 0.00 60 1017.7
20260508044557 63 355 0.0 1.0 0.00 0.00 0.00 61 1017.9
20260508044033 62 0 0.0 3.0 0.00 0.00 0.00 61 1017.9
20260508043533 62 0 0.0 3.0 0.00 0.00 0.00 61 1017.6
20260508043049 62 355 1.0 3.0 0.00 0.00 0.00 61 1017.4
20260508042534 62 355 1.0 3.0 0.00 0.00 0.00 61 1017.3
20260508042033 62 0 0.0 2.0 0.00 0.00 0.00 62 1017.2
20260508041557 62 343 0.0 1.0 0.00 0.00 0.00 62 1016.9
20260508041034 62 0 0.0 2.0 0.00 0.00 0.00 61 1016.8
20260508040533 62 0 0.0 2.0 0.00 0.00 0.00 60 1016.7
20260508040056 62 343 1.0 3.0 0.00 0.00 0.00 60 1016.7
20260508035534 62 343 1.0 4.0 0.00 0.00 0.00 61 1016.7
20260508035034 62 343 2.0 4.0 0.00 0.00 0.00 61 1016.7
20260508034553 62 340 1.0 4.0 0.00 0.00 0.00 63 1016.6
20260508034035 62 352 2.0 4.0 0.00 0.00 0.00 65 1016.7
20260508033533 61 352 2.0 3.0 0.00 0.00 0.00 66 1016.7
20260508033052 61 349 0.0 2.0 0.00 0.00 0.00 67 1016.4
20260508032536 61 349 0.0 4.0 0.00 0.00 0.00 68 1016.6
20260508032035 61 0 0.0 4.0 0.00 0.00 0.00 68 1016.5
20260508031557 61 348 1.0 4.0 0.00 0.00 0.00 69 1016.5
20260508031033 61 0 0.0 3.0 0.00 0.00 0.00 72 1016.5
20260508030534 61 0 0.0 1.0 0.00 0.00 0.00 73 1016.5
20260508030105 61 0 0.0 1.0 0.00 0.00 0.00 74 1016.5
20260508025533 61 0 0.0 2.0 0.00 0.00 0.00 75 1016.5
20260508025034 61 0 0.0 2.0 0.00 0.00 0.00 75 1016.7
20260508024549 61 352 0.0 2.0 0.00 0.00 0.00 75 1016.7
20260508024034 61 0 0.0 0.0 0.00 0.00 0.00 75 1016.8
20260508023533 61 0 0.0 0.0 0.00 0.00 0.00 75 1016.8
20260508023049 62 0 0.0 1.0 0.00 0.00 0.00 75 1016.8
20260508022536 62 0 0.0 1.0 0.00 0.00 0.00 75 1016.8
20260508022035 62 0 0.0 2.0 0.00 0.00 0.00 75 1016.8
20260508021605 62 0 0.0 2.0 0.00 0.00 0.00 75 1016.8
20260508021035 62 352 0.0 2.0 0.00 0.00 0.00 75 1016.7
20260508020533 62 352 0.0 2.0 0.00 0.00 0.00 75 1016.7
20260508020047 62 0 0.0 2.0 0.00 0.00 0.00 75 1016.7
20260508015532 63 0 0.0 1.0 0.00 0.00 0.00 75 1016.7
20260508015033 63 0 0.0 0.0 0.00 0.00 0.00 74 1016.7
20260508014546 63 0 0.0 1.0 0.00 0.00 0.00 74 1016.9
20260508014035 63 0 0.0 2.0 0.00 0.00 0.00 75 1016.9
20260508013533 63 0 0.0 2.0 0.00 0.00 0.00 75 1017.0
20260508013048 62 352 1.0 2.0 0.00 0.00 0.00 75 1017.1
20260508012534 62 352 0.0 2.0 0.00 0.00 0.00 75 1017.1
20260508012034 62 0 0.0 2.0 0.00 0.00 0.00 75 1017.2
20260508011557 63 0 0.0 1.0 0.00 0.00 0.00 75 1017.2
20260508011034 63 0 0.0 2.0 0.00 0.00 0.00 75 1017.3
20260508010536 63 0 0.0 2.0 0.00 0.00 0.00 75 1017.3
20260508010048 63 0 0.0 3.0 0.00 0.00 0.00 74 1017.4
20260508005533 63 0 0.0 3.0 0.00 0.00 0.00 75 1017.6
20260508005034 63 0 0.0 2.0 0.00 0.00 0.00 74 1017.5
20260508004556 63 0 0.0 4.0 0.00 0.00 0.00 74 1017.5
20260508004034 63 352 0.0 4.0 0.00 0.00 0.00 74 1017.6
20260508003535 63 352 1.0 4.0 0.00 0.00 0.00 74 1017.5
20260508003100 63 352 2.0 4.0 0.00 0.00 0.00 75 1017.5
20260508002534 63 0 1.0 3.0 0.00 0.00 0.00 75 1017.5
20260508002033 63 350 1.0 2.0 0.00 0.00 0.00 75 1017.5
20260508001550 63 350 0.0 2.0 0.00 0.00 0.00 76 1017.5
20260508001033 63 0 0.0 2.0 0.00 0.00 0.00 76 1017.4
20260508000538 63 0 0.0 2.0 0.00 0.00 0.00 76 1017.4
20260508000054 63 0 0.0 2.0 0.00 0.00 0.00 76 1017.5
20260507235536 63 0 0.0 1.0 0.00 0.00 0.00 75 1017.5
20260507235034 63 0 0.0 1.0 0.00 0.00 0.00 75 1017.6
20260507234551 63 351 0.0 1.0 0.00 0.00 0.00 75 1017.7
20260507234034 63 0 0.0 0.0 0.00 0.00 0.00 75 1017.9
20260507233534 64 0 0.0 0.0 0.00 0.00 0.00 75 1017.9
20260507233048 64 0 0.0 2.0 0.00 0.00 0.00 75 1018.0
20260507232536 64 0 0.0 4.0 0.00 0.00 0.00 75 1018.2
20260507232033 64 0 0.0 4.0 0.00 0.00 0.00 75 1018.1
20260507231555 64 350 0.0 4.0 0.00 0.00 0.00 75 1018.2
20260507231034 64 351 1.0 2.0 0.00 0.00 0.00 75 1018.1
20260507230536 64 0 0.0 4.0 0.00 0.00 0.00 75 1018.1
20260507230050 64 350 1.0 6.0 0.00 0.00 0.00 74 1018.0
20260507225533 64 350 2.0 9.0 0.00 0.00 0.00 74 1018.1
20260507225034 64 350 3.0 9.0 0.00 0.00 0.00 73 1018.2
20260507224558 64 349 2.0 8.0 0.00 0.00 0.00 73 1018.3
20260507224033 64 0 1.0 8.0 0.00 0.00 0.00 73 1018.4
20260507223533 64 350 2.0 9.0 0.00 0.00 0.00 72 1018.5
20260507223049 64 350 3.0 11.0 0.00 0.00 0.00 72 1018.5
20260507222533 64 349 2.0 11.0 0.00 0.00 0.00 71 1018.5
20260507222033 64 350 5.0 11.0 0.00 0.00 0.00 71 1018.4
20260507221551 64 349 4.0 10.0 0.00 0.00 0.00 71 1018.6
20260507221034 64 350 5.0 10.0 0.00 0.00 0.00 71 1018.5
20260507220532 64 350 4.0 10.0 0.00 0.00 0.00 71 1018.5
20260507220047 64 350 4.0 10.0 0.00 0.00 0.00 70 1018.5
20260507215535 64 350 3.0 10.0 0.00 0.00 0.00 69 1018.6
20260507215034 64 349 3.0 10.0 0.00 0.00 0.00 69 1018.7
20260507214546 64 350 4.0 8.0 0.00 0.00 0.00 68 1018.8
20260507214033 65 350 4.0 8.0 0.00 0.00 0.00 68 1018.9
20260507213534 65 350 4.0 10.0 0.00 0.00 0.00 68 1018.9
20260507213050 65 350 4.0 10.0 0.00 0.00 0.00 67 1018.9
20260507212533 65 350 5.0 10.0 0.00 0.00 0.00 66 1018.9
20260507212034 65 348 3.0 9.0 0.00 0.00 0.00 65 1018.8
20260507211551 65 350 3.0 9.0 0.00 0.00 0.00 64 1018.9
20260507211033 65 350 2.0 9.0 0.00 0.00 0.00 64 1018.9
20260507210533 65 350 2.0 11.0 0.00 0.00 0.00 63 1018.8
20260507210116 65 350 3.0 11.0 0.00 0.00 0.00 63 1018.9
20260507205533 65 350 3.0 8.0 0.00 0.00 0.00 62 1018.9
20260507205033 65 348 3.0 6.0 0.00 0.00 0.00 61 1018.9
20260507204541 65 350 2.0 8.0 0.00 0.00 0.00 60 1018.9
20260507204034 65 350 1.0 8.0 0.00 0.00 0.00 59 1018.9
20260507203534 65 349 3.0 8.0 0.00 0.00 0.00 59 1019.0
20260507203051 65 0 0.0 5.0 0.00 0.00 0.00 58 1018.8
20260507202536 65 349 1.0 5.0 0.00 0.00 0.00 57 1018.9
20260507202033 65 349 1.0 9.0 0.00 0.00 0.00 57 1018.9
20260507201547 65 349 0.0 9.0 0.00 0.00 0.00 57 1018.8
20260507201033 65 349 0.0 3.0 0.00 0.00 0.00 57 1018.8
20260507200534 66 0 0.0 6.0 0.00 0.00 0.00 56 1018.8
20260507195538 66 349 3.0 6.0 0.00 0.00 0.00 56 1018.7
20260507195036 66 0 2.0 6.0 0.00 0.00 0.00 55 1018.8
20260507194545 66 348 1.0 8.0 0.00 0.00 0.00 55 1018.8
20260507194033 66 347 2.0 8.0 0.00 0.00 0.00 55 1018.8
20260507193535 66 0 3.0 8.0 0.00 0.00 0.00 55 1018.7
20260507193111 66 349 2.0 6.0 0.00 0.00 0.00 56 1018.8
20260507192532 66 350 2.0 6.0 0.00 0.00 0.00 55 1018.6
20260507192034 66 348 3.0 8.0 0.00 0.00 0.00 55 1018.6
20260507191557 66 348 2.0 8.0 0.00 0.00 0.00 55 1018.6
20260507191034 66 348 2.0 10.0 0.00 0.00 0.00 55 1018.5
20260507190534 66 347 3.0 10.0 0.00 0.00 0.00 55 1018.4
20260507190048 66 349 4.0 10.0 0.00 0.00 0.00 56 1018.5
20260507185533 66 348 3.0 10.0 0.00 0.00 0.00 55 1018.6
20260507185033 66 350 3.0 10.0 0.00 0.00 0.00 56 1018.6
20260507184547 66 349 4.0 10.0 0.00 0.00 0.00 56 1018.7
20260507184033 66 350 3.0 10.0 0.00 0.00 0.00 55 1018.7
20260507183533 66 348 3.0 9.0 0.00 0.00 0.00 55 1018.5
20260507183059 66 349 2.0 9.0 0.00 0.00 0.00 55 1018.5
20260507182533 66 350 2.0 9.0 0.00 0.00 0.00 54 1018.5
20260507182033 66 349 3.0 9.0 0.00 0.00 0.00 54 1018.5
20260507181546 66 348 2.0 8.0 0.00 0.00 0.00 54 1018.5
20260507181034 66 348 3.0 8.0 0.00 0.00 0.00 54 1018.5
20260507180533 66 349 3.0 6.0 0.00 0.00 0.00 53 1018.5
20260507180056 66 0 1.0 6.0 0.00 0.00 0.00 53 1018.5
20260507175533 66 350 2.0 6.0 0.00 0.00 0.00 53 1018.4
20260507175034 66 349 3.0 6.0 0.00 0.00 0.00 53 1018.4
20260507174549 66 348 2.0 5.0 0.00 0.00 0.00 53 1018.4
20260507174035 66 348 2.0 5.0 0.00 0.00 0.00 52 1018.3
20260507173533 66 349 1.0 5.0 0.00 0.00 0.00 53 1018.4
20260507173123 66 350 0.0 5.0 0.00 0.00 0.00 54 1018.5
20260507172533 66 350 0.0 5.0 0.00 0.00 0.00 53 1018.6
20260507172036 66 0 1.0 6.0 0.00 0.00 0.00 53 1018.5
20260507171548 66 0 2.0 9.0 0.00 0.00 0.00 52 1018.6
20260507171033 66 350 2.0 10.0 0.00 0.00 0.00 52 1018.4
20260507170535 66 348 4.0 11.0 0.00 0.00 0.00 52 1018.3
20260507170049 66 349 4.0 11.0 0.00 0.00 0.00 52 1018.0
20260507165534 67 349 5.0 11.0 0.00 0.00 0.00 53 1017.9
20260507165034 67 350 6.0 11.0 0.00 0.00 0.00 53 1017.8
20260507164553 66 350 4.0 11.0 0.00 0.00 0.00 53 1017.7
20260507164035 66 350 5.0 10.0 0.00 0.00 0.00 54 1017.8
20260507163533 66 348 4.0 12.0 0.00 0.00 0.00 55 1018.0
20260507163051 66 348 4.0 12.0 0.00 0.00 0.00 56 1018.2
20260507162533 66 350 7.0 11.0 0.00 0.00 0.00 56 1018.1
20260507162033 66 350 5.0 10.0 0.00 0.00 0.00 57 1018.2
20260507161605 67 349 6.0 11.0 0.00 0.00 0.00 57 1018.1
20260507161033 67 348 6.0 11.0 0.00 0.00 0.00 58 1018.2
20260507160534 67 349 5.0 12.0 0.00 0.00 0.00 58 1017.9
20260507155533 67 349 7.0 12.0 0.00 0.00 0.00 59 1018.1
20260507155034 67 349 5.0 14.0 0.00 0.00 0.00 59 1018.3
20260507154548 67 348 4.0 14.0 0.00 0.00 0.00 59 1018.2
20260507154034 67 349 5.0 13.0 0.00 0.00 0.00 58 1018.4
20260507153533 68 349 6.0 13.0 0.00 0.00 0.00 59 1018.3
20260507153046 68 349 5.0 10.0 0.00 0.00 0.00 58 1018.4
20260507152533 68 349 6.0 12.0 0.00 0.00 0.00 59 1018.5
20260507152033 68 350 5.0 12.0 0.00 0.00 0.00 60 1018.5
20260507151544 68 348 6.0 12.0 0.00 0.00 0.00 59 1018.5
20260507151033 68 350 3.0 12.0 0.00 0.00 0.00 61 1018.4
20260507150536 68 350 5.0 12.0 0.00 0.00 0.00 61 1018.4
20260507150051 68 350 5.0 12.0 0.00 0.00 0.00 61 1018.4
20260507145533 68 349 7.0 12.0 0.00 0.00 0.00 60 1018.4
20260507145033 68 350 5.0 12.0 0.00 0.00 0.00 59 1018.4
20260507144557 68 349 6.0 12.0 0.00 0.00 0.00 59 1018.4
20260507144036 69 350 4.0 12.0 0.00 0.00 0.00 60 1018.5
20260507143533 69 348 7.0 13.0 0.00 0.00 0.00 59 1018.5
20260507143047 69 350 5.0 13.0 0.00 0.00 0.00 59 1018.4
20260507142535 69 348 8.0 13.0 0.00 0.00 0.00 59 1018.4
20260507142036 69 349 9.0 14.0 0.00 0.00 0.00 58 1018.4
20260507141554 69 348 9.0 14.0 0.00 0.00 0.00 58 1018.4
20260507141033 70 349 6.0 15.0 0.00 0.00 0.00 58 1018.4
20260507140535 69 348 6.0 15.0 0.00 0.00 0.00 56 1018.3
20260507140058 70 348 8.0 15.0 0.00 0.00 0.00 55 1018.1
20260507135535 70 349 8.0 17.0 0.00 0.00 0.00 55 1018.0
20260507135033 70 350 8.0 17.0 0.00 0.00 0.00 55 1018.1
20260507134602 70 349 8.0 15.0 0.00 0.00 0.00 53 1018.1
20260507134035 70 349 11.0 15.0 0.00 0.00 0.00 49 1017.9
20260507133536 70 349 9.0 16.0 0.00 0.00 0.00 46 1018.1
20260507133052 70 348 10.0 16.0 0.00 0.00 0.00 47 1018.0
20260507132533 70 349 8.0 16.0 0.00 0.00 0.00 51 1018.0
20260507132035 70 349 9.0 17.0 0.00 0.00 0.00 51 1018.0
20260507131556 70 351 9.0 17.0 0.00 0.00 0.00 54 1018.0
20260507131034 70 350 10.0 17.0 0.00 0.00 0.00 55 1018.1
20260507130534 70 349 7.0 15.0 0.00 0.00 0.00 59 1018.1
20260507130050 70 350 8.0 15.0 0.00 0.00 0.00 59 1018.1
20260507125535 70 349 9.0 15.0 0.00 0.00 0.00 61 1018.1
20260507125036 70 349 9.0 15.0 0.00 0.00 0.00 64 1018.2
20260507124554 70 348 8.0 15.0 0.00 0.00 0.00 67 1018.6
20260507124035 70 349 8.0 15.0 0.00 0.00 0.00 67 1018.6
20260507123535 70 349 7.0 14.0 0.00 0.00 0.00 69 1018.5
20260507123051 69 348 4.0 12.0 0.00 0.00 0.00 70 1018.5
20260507122533 69 349 5.0 13.0 0.00 0.00 0.00 68 1018.5
20260507122035 69 349 6.0 13.0 0.00 0.00 0.00 68 1018.6
20260507121552 69 348 6.0 13.0 0.00 0.00 0.00 68 1018.7
20260507121032 69 350 5.0 12.0 0.00 0.00 0.00 69 1018.6
20260507120535 69 349 6.0 14.0 0.00 0.00 0.00 68 1018.6
20260507120051 69 349 5.0 14.0 0.00 0.00 0.00 68 1018.7
20260507115536 69 350 3.0 12.0 0.00 0.00 0.00 68 1018.5
20260507115033 69 350 8.0 13.0 0.00 0.00 0.00 65 1018.6
20260507114555 70 350 7.0 13.0 0.00 0.00 0.00 64 1018.8
20260507114035 71 350 5.0 12.0 0.00 0.00 0.00 63 1018.8
20260507113534 71 348 5.0 14.0 0.00 0.00 0.00 62 1018.8
20260507113050 71 349 6.0 14.0 0.00 0.00 0.00 63 1018.8
20260507112533 71 349 7.0 13.0 0.00 0.00 0.00 62 1018.9
20260507112033 71 349 5.0 11.0 0.00 0.00 0.00 60 1019.1
20260507111559 70 350 5.0 11.0 0.00 0.00 0.00 63 1019.0
20260507111033 69 351 3.0 10.0 0.00 0.00 0.00 67 1018.9
20260507110533 69 350 4.0 10.0 0.00 0.00 0.00 68 1018.8
20260507110046 69 350 5.0 12.0 0.00 0.00 0.00 68 1018.9
20260507105533 70 350 4.0 12.0 0.00 0.00 0.00 67 1018.9
20260507105033 70 350 5.0 15.0 0.00 0.00 0.00 63 1018.9
20260507104554 70 350 8.0 15.0 0.00 0.00 0.00 62 1018.8
20260507104034 70 348 8.0 13.0 0.00 0.00 0.00 63 1018.7
20260507103534 70 350 5.0 11.0 0.00 0.00 0.00 65 1018.6
20260507103048 70 350 6.0 10.0 0.00 0.00 0.00 66 1018.3
20260507102533 71 348 6.0 10.0 0.00 0.00 0.00 67 1018.3
20260507102033 71 350 5.0 9.0 0.00 0.00 0.00 66 1018.3
20260507101601 71 350 3.0 11.0 0.00 0.00 0.00 66 1018.4
20260507101034 70 349 3.0 11.0 0.00 0.00 0.00 68 1018.3
20260507100534 69 350 6.0 11.0 0.00 0.00 0.00 69 1018.4
20260507100051 69 350 6.0 13.0 0.00 0.00 0.00 67 1018.5
20260507095535 71 350 7.0 13.0 0.00 0.00 0.00 65 1018.6
20260507095034 71 350 7.0 13.0 0.00 0.00 0.00 64 1018.5
20260507094550 71 350 7.0 13.0 0.00 0.00 0.00 63 1018.5
20260507094033 71 350 6.0 13.0 0.00 0.00 0.00 62 1018.3
20260507093533 72 347 7.0 11.0 0.00 0.00 0.00 61 1018.3
20260507093047 71 350 6.0 11.0 0.00 0.00 0.00 62 1018.3
20260507092533 71 351 5.0 10.0 0.00 0.00 0.00 64 1018.4
20260507092033 71 350 5.0 10.0 0.00 0.00 0.00 63 1018.4
20260507091543 71 350 5.0 10.0 0.00 0.00 0.00 61 1018.3
20260507091033 71 349 4.0 10.0 0.00 0.00 0.00 63 1018.3
20260507090534 71 350 2.0 10.0 0.00 0.00 0.00 66 1018.3
20260507090049 70 350 4.0 10.0 0.00 0.00 0.00 67 1018.3
20260507085533 70 347 4.0 9.0 0.00 0.00 0.00 70 1018.3
20260507085034 69 349 2.0 9.0 0.00 0.00 0.00 71 1018.4
20260507084548 69 349 4.0 10.0 0.00 0.00 0.00 70 1018.4
20260507084034 69 350 4.0 10.0 0.00 0.00 0.00 69 1018.4
20260507083535 69 350 6.0 10.0 0.00 0.00 0.00 69 1018.3
20260507083048 69 350 5.0 9.0 0.00 0.00 0.00 67 1018.2
20260507082532 69 351 4.0 10.0 0.00 0.00 0.00 67 1018.2
20260507082033 69 350 5.0 10.0 0.00 0.00 0.00 70 1018.1
20260507081549 69 351 5.0 9.0 0.00 0.00 0.00 69 1018.1
20260507081034 69 350 4.0 9.0 0.00 0.00 0.00 71 1018.1
20260507080536 68 351 3.0 9.0 0.00 0.00 0.00 72 1018.2
20260507080047 68 350 4.0 9.0 0.00 0.00 0.00 73 1018.1
20260507075533 68 351 4.0 9.0 0.00 0.00 0.00 73 1018.0
20260507075033 68 351 4.0 9.0 0.00 0.00 0.00 73 1017.9
20260507074550 68 350 2.0 9.0 0.00 0.00 0.00 73 1018.0
20260507074035 68 351 5.0 9.0 0.00 0.00 0.00 73 1017.9
20260507073533 68 351 4.0 8.0 0.00 0.00 0.00 72 1017.8
20260507073046 68 350 1.0 5.0 0.00 0.00 0.00 73 1017.8
20260507072534 68 351 1.0 6.0 0.00 0.00 0.00 74 1017.8
20260507072032 67 351 2.0 6.0 0.00 0.00 0.00 73 1017.8
20260507071551 67 351 1.0 6.0 0.00 0.00 0.00 73 1017.8
20260507071036 67 351 2.0 6.0 0.00 0.00 0.00 74 1018.0
20260507070533 66 350 3.0 6.0 0.00 0.00 0.00 74 1018.0
20260507070053 66 350 2.0 10.0 0.00 0.00 0.00 73 1018.1
20260507065532 66 350 4.0 11.0 0.00 0.00 0.00 74 1018.2
20260507065033 66 351 7.0 11.0 0.00 0.00 0.00 72 1018.1
20260507064606 66 351 7.0 11.0 0.00 0.00 0.00 70 1018.1
20260507064034 67 351 4.0 8.0 0.00 0.00 0.00 69 1018.1
20260507063533 66 350 3.0 8.0 0.00 0.00 0.00 67 1018.0
20260507063052 67 351 3.0 8.0 0.00 0.00 0.00 66 1018.0
20260507062533 67 351 2.0 5.0 0.00 0.00 0.00 67 1017.9
20260507062033 67 350 3.0 5.0 0.00 0.00 0.00 65 1018.0
20260507061547 67 351 1.0 9.0 0.00 0.00 0.00 67 1018.0
20260507061033 66 350 3.0 9.0 0.00 0.00 0.00 67 1018.0
20260507060533 66 350 3.0 8.0 0.00 0.00 0.00 66 1017.9
20260507060052 66 350 3.0 8.0 0.00 0.00 0.00 65 1017.9
20260507055533 67 351 2.0 5.0 0.00 0.00 0.00 64 1017.8
20260507055032 67 350 2.0 4.0 0.00 0.00 0.00 61 1017.8
20260507054545 67 351 2.0 4.0 0.00 0.00 0.00 60 1017.8
20260507054037 68 0 1.0 3.0 0.00 0.00 0.00 59 1017.6